Location: Austin
(30.3000°N, 97.7500°W)
Time: 03:40:18
(UTC-05:00)

Intelsat 5-1 Rocket - Pass Details

Date: 18 March 2023
Orbit: 309 x 7361 km, 23.9° (Epoch: 01 April)

Event Time Altitude Azimuth Distance (km) Brightness Sun altitude
Rises 21:40:08 0° 251° (WSW) 3,134 6.5 -26.2°
Reaches altitude 10° 21:41:48 10° 246° (WSW) 2,539 5.8 -26.6°
Maximum altitude 21:47:45 59° 168° (SSE) 1,778 4.1 -27.8°
Enters shadow 21:51:00 46° 118° (ESE) 2,533 4.6 -28.5°
